Kozani Airport, Greece

5:37 AM EEST on August 25, 2016 (GMT +0300)
Filippos

Weather History for LGKZ - August, 2013

Change the Weather History Date:

Wednesday, August 28, 2013

  Actual Average Record
Temperature  
Mean Temperature 74 °F -  
Max Temperature 87 °F - - ()
Min Temperature 60 °F - - ()
Cooling Degree Days 10    
Growing Degree Days 24 (Base 50)    
Moisture  
Dew Point 55 °F    
Average Humidity 65    
Maximum Humidity 83    
Minimum Humidity 27    
Precipitation  
Precipitation 0.00 in - - ()
Sea Level Pressure  
Sea Level Pressure 29.96 in    
Wind  
Wind Speed 4 mph ()    
Max Wind Speed 26 mph    
Max Gust Speed 23 mph    
Visibility 6.2 miles    
Events Rain , Thunderstorm    
T = Trace of Precipitation, MM = Missing Value Source: Averaged Metar Reports

Daily Weather History Graph

Daily Weather History Graph

Search for Another Location

Airport or City:

Trip Planner

Search our weather history database for the weather conditions in past years. The results will help you decide how hot, cold, wet, or windy it might be!

Date:

Astronomy

Aug. 28, 2013 Rise Set
Actual Time 6:56 AM EEST 8:10 PM EEST
Civil Twilight 6:28 AM EEST 8:38 PM EEST
Nautical Twilight 5:54 AM EEST 9:12 PM EEST
Astronomical Twilight 5:18 AM EEST 9:47 PM EEST
Moon No Moon Rise 2:32 PM EEST (8/28)
Length of Visible Light 14h 10m
Length of Day
13h 14m
Waning Gibbous, 50% of the Moon is Illuminated
Aug 28
Waning Gibbous
Aug 28
Last Quarter
Sep 5
New
Sep 12
First Quarter
Sep 19
Full

Hourly Weather History & Observations

Time (EEST) Temp. Dew Point Humidity Pressure Visibility Wind Dir Wind Speed Gust Speed Precip Events Conditions
12:20 AM 66.2 °F 50.0 °F 56% 29.95 in - Variable 2.3 mph - N/A   Unknown
12:50 AM 68.0 °F 50.0 °F 52% 29.95 in - Variable 3.5 mph - N/A   Unknown
1:20 AM 68.0 °F 50.0 °F 52% 29.95 in - Variable 3.5 mph - N/A   Unknown
1:50 AM 68.0 °F 50.0 °F 52% 29.95 in - Variable 3.5 mph - N/A   Unknown
2:20 AM 66.2 °F 51.8 °F 60% 29.95 in - North 4.6 mph - N/A   Unknown
2:50 AM 66.2 °F 51.8 °F 60% 29.95 in - North 4.6 mph - N/A   Unknown
3:20 AM 66.2 °F 51.8 °F 60% 29.95 in - North 4.6 mph - N/A   Unknown
3:50 AM 66.2 °F 51.8 °F 60% 29.92 in - North 4.6 mph - N/A   Unknown
4:20 AM 64.4 °F 51.8 °F 64% 29.92 in - Variable 1.2 mph - N/A   Unknown
4:50 AM 64.4 °F 51.8 °F 64% 29.95 in - NNW 6.9 mph - N/A   Unknown
5:20 AM 64.4 °F 51.8 °F 64% 29.95 in - Variable 3.5 mph - N/A   Unknown
5:50 AM 64.4 °F 51.8 °F 64% 29.95 in - NNW 6.9 mph - N/A   Unknown
6:20 AM 64.4 °F 53.6 °F 68% 29.95 in - Variable 1.2 mph - N/A   Unknown
6:50 AM 64.4 °F 51.8 °F 64% 29.95 in - Calm Calm - N/A   Unknown
7:20 AM 68.0 °F 53.6 °F 60% 29.98 in - NW 5.8 mph - N/A   Unknown
7:50 AM 66.2 °F 53.6 °F 64% 30.01 in - North 8.1 mph - N/A Rain Light Rain
8:20 AM 68.0 °F 53.6 °F 60% 29.98 in - NNW 5.8 mph - N/A   Unknown
8:50 AM 71.6 °F 55.4 °F 57% 29.98 in 6.2 mi Calm Calm - N/A   Scattered Clouds
9:50 AM 73.4 °F 53.6 °F 50% 29.98 in 6.2 mi Calm Calm - N/A   Scattered Clouds
10:50 AM 80.6 °F 50.0 °F 34% 29.98 in 6.2 mi Calm Calm - N/A   Scattered Clouds
11:50 AM 82.4 °F 51.8 °F 35% 29.95 in 6.2 mi East 5.8 mph - N/A   Scattered Clouds
12:50 PM 86.0 °F 50.0 °F 29% 29.95 in 6.2 mi Calm Calm - N/A   Scattered Clouds
1:50 PM 87.8 °F 50.0 °F 27% 29.92 in 6.2 mi East 4.6 mph - N/A   Scattered Clouds
2:50 PM 64.4 °F 59.0 °F 83% 30.01 in 6.2 mi NW 26.5 mph - N/A Rain , Thunderstorm Thunderstorms and Rain
3:20 PM 69.8 °F 59.0 °F 68% 29.95 in - NW 11.5 mph - N/A   Unknown
3:50 PM 69.8 °F 60.8 °F 73% 29.95 in - SE 5.8 mph - N/A   Unknown
4:20 PM 69.8 °F 59.0 °F 68% 29.95 in - NW 11.5 mph - N/A   Unknown
4:50 PM 68.0 °F 55.4 °F 64% 29.98 in - WNW 11.5 mph 23.0 mph N/A Rain Light Rain
5:20 PM 66.2 °F 60.8 °F 83% 29.98 in - East 12.7 mph - N/A Rain Light Rain
5:50 PM 66.2 °F 60.8 °F 83% 29.98 in - Variable 1.2 mph - N/A Rain Light Rain
6:20 PM 69.8 °F 60.8 °F 73% 29.98 in - Variable 1.2 mph - N/A   Unknown
6:50 PM 71.6 °F 60.8 °F 69% 29.98 in - Calm Calm - N/A   Unknown
7:20 PM 69.8 °F 60.8 °F 73% 29.98 in - Variable 1.2 mph - N/A   Unknown
7:50 PM 68.0 °F 60.8 °F 78% 29.98 in - Variable 1.2 mph - N/A   Unknown
8:20 PM 66.2 °F 60.8 °F 83% 29.98 in - Calm Calm - N/A   Unknown
8:50 PM 66.2 °F 60.8 °F 83% 29.98 in - Variable 2.3 mph - N/A   Unknown
9:20 PM 64.4 °F 59.0 °F 83% 29.98 in - North 5.8 mph - N/A   Unknown
9:50 PM 62.6 °F 57.2 °F 82% 29.98 in - North 4.6 mph - N/A   Unknown
10:20 PM 62.6 °F 57.2 °F 82% 29.98 in - North 4.6 mph - N/A   Unknown
10:50 PM 64.4 °F 55.4 °F 73% 29.98 in - Variable 1.2 mph - N/A   Unknown
11:20 PM 62.6 °F 55.4 °F 77% 29.98 in - Variable 1.2 mph - N/A   Unknown
11:50 PM 60.8 °F 55.4 °F 82% 29.98 in - North 4.6 mph - N/A   Unknown